When you browse on this site, cookies collect data to enhance your experience and personalize the content and advertising you see.
Visit our Privacy Policy to learn more. By continuing to use the site, you agree to this use of cookies and data.
  • în România
  • Lista ţărilor
  • Pe 7 zile
  • Temperatura apei
  • Hartă satelitară
  • Meteo pe hartă
  • Widget-uri
  • user-avatar
    Intrare

    Meteo pe oră la Oran

    Astăzi, 10 Decembrie, Luni

    Timp Temperatura Precipitaţii Vânt Presiune Umiditate
    00:00 +14°C° 0 mm 0 m/s 760 mmHg 54%
    01:00 +14°C° 0 mm 0 m/s 760 mmHg 54%
    02:00 +14°C° 0 mm 0 m/s 760 mmHg 53%
    03:00 +13°C° 0 mm 0 m/s 759 mmHg 53%
    04:00 +14°C° 0 mm 1 m/s 759 mmHg 52%
    05:00 +14°C° 0 mm 1 m/s 759 mmHg 52%
    06:00 +14°C° 0 mm 1 m/s 760 mmHg 52%
    07:00 +16°C° 0 mm 1 m/s 760 mmHg 47%
    08:00 +19°C° 0 mm 1 m/s 760 mmHg 43%
    09:00 +19°C° 0 mm 2 m/s 760 mmHg 38%
    10:00 +21°C° 0 mm 2 m/s 760 mmHg 35%
    11:00 +23°C° 0 mm 2 m/s 760 mmHg 33%
    12:00 +24°C° 0 mm 2 m/s 760 mmHg 31%
    13:00 +24°C° 0 mm 3 m/s 759 mmHg 31%
    14:00 +24°C° 0 mm 3 m/s 759 mmHg 32%
    15:00 +23°C° 0 mm 4 m/s 758 mmHg 33%
    16:00 +21°C° 0 mm 4 m/s 758 mmHg 38%
    17:00 +20°C° 0 mm 4 m/s 758 mmHg 44%
    18:00 +18°C° 0 mm 4 m/s 758 mmHg 49%
    19:00 +18°C° 0 mm 4 m/s 758 mmHg 50%
    20:00 +17°C° 0 mm 3 m/s 758 mmHg 52%
    21:00 +17°C° 0 mm 3 m/s 758 mmHg 53%
    22:00 +16°C° 0 mm 3 m/s 758 mmHg 54%
    23:00 +16°C° 0 mm 3 m/s 758 mmHg 54%

    Mâine, 11 Decembrie, Marţi

    Timp Temperatura Precipitaţii Vânt Presiune Umiditate
    00:00 +14°C° 0 mm 3 m/s 758 mmHg 55%
    01:00 +15°C° 0 mm 2 m/s 757 mmHg 55%
    02:00 +15°C° 0 mm 2 m/s 757 mmHg 56%
    03:00 +14°C° 0 mm 2 m/s 757 mmHg 57%
    04:00 +14°C° 0 mm 2 m/s 757 mmHg 59%
    05:00 +14°C° 0 mm 2 m/s 757 mmHg 60%
    06:00 +13°C° 0 mm 1 m/s 757 mmHg 62%
    07:00 +15°C° 0 mm 1 m/s 757 mmHg 55%
    08:00 +18°C° 0 mm 1 m/s 757 mmHg 49%
    09:00 +20°C° 0 mm 1 m/s 757 mmHg 43%
    10:00 +21°C° 0 mm 1 m/s 757 mmHg 41%
    11:00 +22°C° 0 mm 1 m/s 757 mmHg 39%
    12:00 +23°C° 0 mm 1 m/s 756 mmHg 36%
    13:00 +23°C° 0 mm 2 m/s 756 mmHg 39%
    14:00 +23°C° 0 mm 2 m/s 756 mmHg 41%
    15:00 +21°C° 0 mm 3 m/s 755 mmHg 43%
    16:00 +20°C° 0 mm 2 m/s 755 mmHg 51%
    17:00 +18°C° 0 mm 2 m/s 755 mmHg 59%
    18:00 +17°C° 0 mm 2 m/s 756 mmHg 67%
    19:00 +16°C° 0 mm 2 m/s 756 mmHg 70%
    20:00 +16°C° 0 mm 3 m/s 756 mmHg 73%
    21:00 +16°C° 0 mm 3 m/s 756 mmHg 75%
    22:00 +14°C° 0 mm 3 m/s 756 mmHg 76%
    23:00 +14°C° 0 mm 3 m/s 756 mmHg 77%

    Poimâine, 12 Decembrie, Miercuri

    Timp Temperatura Precipitaţii Vânt Presiune Umiditate
    00:00 +14°C° 0 mm 4 m/s 756 mmHg 78%
    01:00 +14°C° 0 mm 4 m/s 756 mmHg 77%
    02:00 +13°C° 0 mm 4 m/s 756 mmHg 77%
    03:00 +13°C° 0 mm 4 m/s 755 mmHg 77%
    04:00 +13°C° 0 mm 4 m/s 755 mmHg 77%
    05:00 +13°C° 0 mm 4 m/s 755 mmHg 77%
    06:00 +13°C° 0 mm 4 m/s 756 mmHg 78%
    07:00 +14°C° 0 mm 4 m/s 756 mmHg 73%
    08:00 +15°C° 0 mm 4 m/s 756 mmHg 69%
    09:00 +16°C° 0 mm 5 m/s 756 mmHg 65%
    10:00 +17°C° 0 mm 5 m/s 756 mmHg 60%
    11:00 +19°C° 0 mm 5 m/s 756 mmHg 55%
    12:00 +20°C° 0 mm 5 m/s 755 mmHg 51%
    13:00 +20°C° 0 mm 5 m/s 755 mmHg 51%
    14:00 +20°C° 0 mm 5 m/s 754 mmHg 52%
    15:00 +20°C° 0 mm 5 m/s 754 mmHg 52%
    16:00 +19°C° 0 mm 5 m/s 754 mmHg 60%
    17:00 +17°C° 0 mm 4 m/s 754 mmHg 68%
    18:00 +15°C° 0 mm 4 m/s 754 mmHg 76%
    19:00 +15°C° 0 mm 4 m/s 754 mmHg 77%
    20:00 +14°C° 0 mm 4 m/s 754 mmHg 77%
    21:00 +14°C° 0 mm 4 m/s 754 mmHg 78%
    22:00 +14°C° 0 mm 4 m/s 754 mmHg 77%
    23:00 +14°C° 0 mm 5 m/s 754 mmHg 76%

    13 Decembrie, Joi

    Timp Temperatura Precipitaţii Vânt Presiune Umiditate
    00:00 +14°C° 0 mm 5 m/s 753 mmHg 75%
    01:00 +13°C° 0 mm 5 m/s 753 mmHg 75%
    02:00 +13°C° 0 mm 6 m/s 752 mmHg 75%
    03:00 +13°C° 0 mm 6 m/s 752 mmHg 75%
    04:00 +12°C° 0 mm 7 m/s 752 mmHg 76%
    05:00 +12°C° 0 mm 7 m/s 751 mmHg 76%
    06:00 +12°C° 0 mm 8 m/s 751 mmHg 76%
    07:00 +13°C° 0 mm 9 m/s 751 mmHg 74%
    08:00 +15°C° 0 mm 9 m/s 751 mmHg 72%
    09:00 +14°C° 0 mm 10 m/s 751 mmHg 70%
    10:00 +16°C° 0.2 mm 9 m/s 751 mmHg 64%
    11:00 +17°C° 0.2 mm 9 m/s 750 mmHg 59%
    12:00 +17°C° 0.2 mm 9 m/s 750 mmHg 53%
    13:00 +17°C° 1.2 mm 9 m/s 749 mmHg 57%
    14:00 +16°C° 1.2 mm 9 m/s 749 mmHg 60%
    15:00 +16°C° 1.2 mm 9 m/s 748 mmHg 63%
    16:00 +14°C° 0.6 mm 11 m/s 748 mmHg 64%
    17:00 +14°C° 0.6 mm 14 m/s 748 mmHg 65%
    18:00 +14°C° 0.6 mm 17 m/s 749 mmHg 67%
    19:00 +13°C° 0.6 mm 16 m/s 750 mmHg 63%
    20:00 +13°C° 0.6 mm 15 m/s 751 mmHg 60%
    21:00 +12°C° 0.6 mm 14 m/s 752 mmHg 57%
    22:00 +12°C° 0.6 mm 14 m/s 752 mmHg 56%
    23:00 +10°C° 0.6 mm 13 m/s 752 mmHg 56%

    14 Decembrie, Vineri

    Timp Temperatura Precipitaţii Vânt Presiune Umiditate
    00:00 +10°C° 0.6 mm 13 m/s 753 mmHg 56%
    01:00 +10°C° 0.2 mm 13 m/s 753 mmHg 58%
    02:00 +10°C° 0.2 mm 13 m/s 753 mmHg 60%
    03:00 +10°C° 0.2 mm 12 m/s 753 mmHg 62%
    04:00 +10°C° 0.1 mm 12 m/s 754 mmHg 62%
    05:00 +11°C° 0.1 mm 11 m/s 754 mmHg 62%
    06:00 +11°C° 0.1 mm 11 m/s 755 mmHg 62%
    07:00 +11°C° 0 mm 10 m/s 755 mmHg 59%
    08:00 +12°C° 0 mm 10 m/s 756 mmHg 57%
    09:00 +12°C° 0 mm 9 m/s 757 mmHg 54%
    10:00 +13°C° 0 mm 9 m/s 757 mmHg 53%
    11:00 +13°C° 0 mm 9 m/s 758 mmHg 51%
    12:00 +13°C° 0 mm 9 m/s 758 mmHg 49%
    13:00 +13°C° 0 mm 8 m/s 758 mmHg 51%
    14:00 +13°C° 0 mm 8 m/s 758 mmHg 52%
    15:00 +14°C° 0 mm 7 m/s 758 mmHg 53%
    16:00 +13°C° 0 mm 6 m/s 758 mmHg 57%
    17:00 +13°C° 0 mm 5 m/s 759 mmHg 61%
    18:00 +12°C° 0 mm 4 m/s 760 mmHg 65%
    19:00 +12°C° 0 mm 4 m/s 760 mmHg 67%
    20:00 +11°C° 0 mm 4 m/s 761 mmHg 68%
    21:00 +11°C° 0 mm 3 m/s 761 mmHg 70%
    22:00 +11°C° 0 mm 3 m/s 761 mmHg 72%
    23:00 +11°C° 0 mm 3 m/s 761 mmHg 73%

    15 Decembrie, Sâmbătă

    Timp Temperatura Precipitaţii Vânt Presiune Umiditate
    00:00 +11°C° 0 mm 3 m/s 761 mmHg 75%
    01:00 +11°C° 0 mm 3 m/s 761 mmHg 76%
    02:00 +10°C° 0 mm 3 m/s 761 mmHg 76%
    03:00 +10°C° 0 mm 3 m/s 761 mmHg 77%
    04:00 +10°C° 0 mm 3 m/s 761 mmHg 77%
    05:00 +10°C° 0 mm 3 m/s 761 mmHg 77%
    06:00 +10°C° 0 mm 3 m/s 761 mmHg 76%
    07:00 +11°C° 0 mm 3 m/s 762 mmHg 71%
    08:00 +12°C° 0 mm 3 m/s 762 mmHg 65%
    09:00 +13°C° 0 mm 3 m/s 763 mmHg 60%
    10:00 +14°C° 0 mm 3 m/s 763 mmHg 54%
    11:00 +14°C° 0 mm 3 m/s 762 mmHg 48%
    12:00 +16°C° 0 mm 2 m/s 762 mmHg 42%
    13:00 +17°C° 0 mm 2 m/s 762 mmHg 41%
    14:00 +17°C° 0 mm 2 m/s 762 mmHg 39%
    15:00 +18°C° 0 mm 1 m/s 761 mmHg 38%
    16:00 +16°C° 0 mm 1 m/s 761 mmHg 43%
    17:00 +15°C° 0 mm 1 m/s 762 mmHg 47%
    18:00 +14°C° 0 mm 1 m/s 762 mmHg 52%
    19:00 +14°C° 0 mm 2 m/s 762 mmHg 53%
    20:00 +14°C° 0 mm 2 m/s 762 mmHg 55%
    21:00 +13°C° 0 mm 2 m/s 762 mmHg 56%
    22:00 +13°C° 0 mm 2 m/s 762 mmHg 56%
    23:00 +13°C° 0 mm 2 m/s 762 mmHg 56%
    Arată mai mult